Regional Weather Roundup
Issued by NWS

Home | Current Version | Previous Version | Text Only | Print | Product List | Glossary Off
Versions: 1 2 3 4 5 6 7 8 9 10 11 12 13 14 15 16 17 18 19 20 21 22 23 24 25 26 27 28 29 30 31 32 33 34 35 36 37 38 39 40 41 42 43 44 45 46 47 48 49 50

000
ASUS45 KSLC 212110
RWRUT

UTAH REGIONAL WEATHER ROUNDUP
NATIONAL WEATHER SERVICE SALT LAKE CITY UT
200 PM MST SAT JAN 21 2017

UTZ001>011-023>025-212200-

NORTHERN UTAH

CITY           SKY/WX    TMP DP  RH WIND       PRES   REMARKS
BRIGHAM CITY     N/A     34  32  92 S7        29.62R WCI  28
HILL AFB       LGT SNOW  32  31  96 W6        29.61R VSB 3/4 WCI  27
LOGAN          CLOUDY    32  31  96 E3        29.60R FOG
OGDEN          LGT SNOW  32  32 100 SW5       29.61R FOG     WCI  27
SALT LAKE CITY CLOUDY    34  32  92 CALM      29.63R
TOOELE VALLEY  CLOUDY    36  32  87 CALM      29.64R
WENDOVER       MOSUNNY   41  21  45 W18       29.63R
HEBER CITY     CLOUDY    32  27  80 CALM      29.54R
WEST JORDAN    CLOUDY    32  32 100 NE6       29.63R WCI  27

$$

UTZ011>015-024>027-212200-

CENTRAL/NORTHEAST UTAH

CITY           SKY/WX    TMP DP  RH WIND       PRES   REMARKS
PROVO AIRPORT  CLOUDY    33  30  88 NW12      29.63R WCI  24
MOAB/CANYONLAN PTSUNNY   39  36  89 NW10      29.47R WCI  32
DELTA          MOSUNNY   32  32 100 S8        29.66R WCI  25
PRICE          PTSUNNY   37  24  59 NW7       29.47R WCI  32
RICHFIELD      PTSUNNY   36  21  55 NW8G17    29.65R WCI  29
ROOSEVELT      CLOUDY    32  23  69 E6        29.49S WCI  26
VERNAL         CLOUDY    25  21  85 NE5       29.49R WCI  19

$$

UTZ013>016-019>022-027-212200-

SOUTHERN UTAH

CITY           SKY/WX    TMP DP  RH WIND       PRES   REMARKS
BRYCE CANYON   CLOUDY    27  18  69 NW21G28   29.59R WCI  13
CEDAR CITY     CLOUDY    34  24  67 SW9       29.67R WCI  27
MILFORD        PTSUNNY   37  32  82 SW6       29.65R WCI  32
ST GEORGE      MOCLDY    50  32  50 W14G25    29.75R
HANKSVILLE     MOSUNNY   46  23  39 MISG      29.51R
KANAB          MOSUNNY   39  30  70 SW13      29.72R WCI  32
BLANDING       MOSUNNY   34  31  87 SW10      29.56R WCI  26

$$

REGIONAL REPORTS     COLORADO/ARIZONA

CITY           SKY/WX    TMP DP  RH WIND       PRES   REMARKS
CRAIG, CO      FLURRIES  29  20  69 W7        29.43R WCI  22
GRAND JUNCTION MIX PCPN  35  34  96 NE5       29.45R WCI  31
RIFLE, CO      CLOUDY    34  31  88 W8        29.43R WCI  27
MONTROSE, CO   LGT SNOW  31  30  96 SE6       29.46R FOG     WCI  25
CORTEZ, CO     FLURRIES  32  31  96 S7        29.50R WCI  26
COLORADO CITY    N/A     37  32  81 W18G24    29.74R WCI  27
PAGE, AZ       CLOUDY    45  22  40 W16G31    29.60R
GRAND CANYON   CLOUDY    32  27  81 W12G21    29.69R WCI  23
KINGMAN, AZ    MOSUNNY   47  26  44 MISG      29.79R
FLAGSTAFF, AZ  FLURRIES  29  21  72 W12G25    29.70R WCI  19

$$

REGIONAL REPORTS    NEVADA/IDAHO/WYOMING

CITY           SKY/WX    TMP DP  RH WIND       PRES   REMARKS
LAS VEGAS, NV  MOSUNNY   56  28  34 N3        29.74R
ELY, NY        CLOUDY    32  17  54 W7        29.68R WCI  26
ELKO, NV       PTSUNNY   35  24  64 SW9       29.67R WCI  28
POCATELLO, ID  FLURRIES  32  29  88 SW17      29.58R WCI  21
BURLEY, ID     PTSUNNY   36  27  69 W9        29.59R WCI  29
FORT BRIDGER,  LGT SNOW  24  24 100 W15       29.51R WCI  11
EVANSTON, WY   FLURRIES  25  19  78 W15       29.51R WCI  13
ROCK SPRINGS,  CLOUDY    21  16  81 SW15      29.46R WCI   8

$$



USA.gov is the U.S. government's official web portal to all federal, state and local government web resources and services.